Temperature
17 17 17 17 16 16 16 16 16 16 16 15 15 15 15 15 15 14 14 14 14 14 14 14 14 14 14 14 13 13 13 13 13 12 12 13 13 13 13 12 12 12 11
16 17 17 17 16 16 16 16 16 16 16 16 15 15 15 15 15 15 14 14 14 14 14 14 14 14 13 13 13 13 13 13 12 12 12 11 12 12 12 12 12 11 11
16 17 17 17 17 17 17 16 16 16 16 16 15 15 15 15 14 14 14 14 14 14 14 14 14 14 13 13 13 13 12 12 12 12 11 11 11 11 11 11 11 11 10
16 16 17 17 17 17 17 17 16 16 16 16 15 15 15 15 15 15 14 14 14 14 14 14 14 13 13 13 13 13 12 12 12 11 11 11 10 10 10 10 10 10 10
16 16 17 17 17 17 17 17 16 16 16 16 15 15 15 15 15 14 14 14 14 14 14 14 13 13 13 13 13 12 12 12 11 11 11 10 10 10 9 9 9 9 9
16 16 16 16 16 16 16 16 16 16 16 16 15 15 15 15 14 14 14 14 14 14 14 13 13 13 13 12 12 12 12 11 11 11 10 10 9 9 9 9 9 8 8
16 16 16 16 16 16 16 16 16 16 15 15 15 15 15 14 14 14 14 14 14 13 13 13 13 12 12 12 12 11 11 11 10 10 10 9 9 8 8 8 8 8 7
15 16 16 16 16 16 16 15 15 15 15 15 15 14 14 14 14 14 13 13 13 13 13 12 12 12 12 11 11 11 11 10 10 9 9 9 8 8 8 8 7 7 7
15 15 15 15 15 15 15 15 15 15 14 14 14 14 14 13 13 13 13 13 12 12 12 12 12 11 11 11 10 10 10 10 9 9 8 8 8 8 7 7 7 6 6
14 14 14 14 14 14 14 14 14 14 14 14 13 13 13 13 12 12 12 12 12 12 11 11 11 11 10 10 10 9 9 9 9 8 8 7 7 7 7 7 6 6 5
13 13 13 14 14 14 13 13 13 13 13 13 13 12 12 12 12 12 12 11 11 11 11 10 10 10 10 9 9 9 8 8 8 7 7 7 6 6 6 6 6 5 5
12 13 13 13 13 13 13 13 12 12 12 12 12 12 11 11 11 11 11 11 10 10 10 10 9 9 9 8 8 8 7 7 6 6 6 6 5 5 5 5 5 5 5
12 12 12 12 12 12 12 12 12 11 11 11 11 10 10 10 10 10 10 10 10 9 9 9 9 8 8 7 7 7 6 6 5 5 5 4 4 4 4 4 4 4 4
11 11 11 11 11 11 11 11 11 10 10 10 10 10 10 9 9 9 9 9 9 9 8 8 8 7 7 7 6 6 5 5 4 4 4 3 3 3 3 3 3 3 3
10 10 11 11 11 11 10 10 10 10 9 9 9 9 9 9 9 9 9 8 8 8 7 7 7 6 6 5 5 4 4 4 3 3 3 3 2 2 3 3 3 3 3
9 9 10 10 10 10 10 10 9 9 9 9 9 8 8 8 8 8 8 8 7 7 7 6 6 5 5 4 4 3 3 3 2 2 2 2 2 2 2 2 2 2 2
8 9 9 9 9 9 9 9 9 9 8 8 8 8 8 8 8 7 7 7 7 6 6 5 5 4 4 3 3 2 2 2 2 2 2 1 1 1 1 2 2 2 2
7 8 8 8 9 9 9 9 8 8 8 8 8 8 7 7 7 7 7 6 6 5 5 5 4 3 3 3 2 2 1 1 1 1 1 1 1 1 1 1 1 1 1
7 7 7 8 8 8 8 8 8 8 8 8 7 7 7 7 7 6 6 6 5 5 4 4 3 3 2 2 1 1 1 1 1 0 0 0 0 0 0 0 0 0 0
6 6 7 7 7 8 8 8 8 7 7 7 7 7 7 6 6 6 5 5 4 4 3 3 3 2 2 1 1 0 0 0 -0 -0 -0 -0 -0 -0 -0 -0 -0 -0 -0
6 6 6 6 7 7 7 7 7 7 7 7 6 6 6 6 5 5 4 4 3 3 3 2 2 1 1 0 0 -0 -0 -0 -0 -1 -1 -1 -1 -1 -1 -1 -1 -1 -1
5 5 6 6 6 6 6 6 7 6 6 6 6 6 5 5 4 4 4 3 3 2 2 2 2 1 0 -0 -0 -1 -1 -1 -1 -1 -1 -1 -1 -1 -1 -1 -1 -2 -2
5 5 5 5 5 5 5 6 6 6 6 5 5 5 5 4 4 3 3 3 2 2 2 1 1 0 -0 -0 -1 -1 -1 -1 -1 -1 -1 -1 -2 -2 -2 -2 -2 -2 -2
4 4 4 4 5 5 5 5 5 5 5 5 4 4 4 4 3 3 2 2 2 2 1 1 1 0 -0 -1 -1 -1 -1 -1 -2 -2 -2 -2 -2 -2 -2 -2 -2 -2 -2
3 3 3 4 4 4 4 4 4 4 4 4 4 4 3 3 3 2 2 2 1 1 1 0 0 -0 -0 -1 -1 -1 -1 -1 -2 -2 -2 -2 -2 -2 -2 -2 -2 -2 -2
3 3 3 3 3 3 4 4 4 3 3 3 3 3 3 2 2 2 1 1 1 0 0 -0 -0 -1 -1 -1 -1 -1 -2 -2 -2 -2 -2 -2 -2 -2 -2 -2 -2 -2 -2
Wind_Speed
9 7 7 8 7 8 10 10 11 10 9 6 6 6 6 5 5 6 9 10 10 10 9 5 4 4 4 4 4 3 3 3 1 1 3 3 3 2 2 1 0 0 1
8 7 7 7 8 9 10 10 11 11 10 8 7 5 5 4 4 4 6 8 9 8 7 5 4 3 3 3 3 3 2 2 2 2 1 3 3 2 3 2 1 2 4
11 9 9 9 9 10 11 11 11 11 10 9 5 4 3 3 3 4 4 5 8 8 7 6 4 3 3 3 3 3 4 3 3 3 3 3 3 2 2 3 3 3 3
11 9 9 9 10 10 9 9 10 10 9 9 9 9 7 6 6 5 5 4 6 7 7 6 5 3 3 3 3 3 3 3 3 2 3 4 3 3 2 1 3 4 5
11 11 10 11 10 9 8 8 9 9 8 9 10 10 7 6 4 4 6 4 3 4 5 6 4 3 2 3 2 2 2 3 3 3 2 3 3 4 4 3 1 2 3
10 9 8 7 7 6 6 7 8 7 7 8 9 10 10 8 8 7 7 5 3 3 4 5 4 3 2 2 2 1 2 2 3 3 3 3 3 3 3 4 3 2 1
8 8 8 7 7 7 7 7 8 7 7 7 8 9 9 10 10 8 8 6 4 3 3 3 3 2 2 2 1 1 1 1 2 2 2 2 3 2 3 3 3 2 2
6 7 7 8 8 8 8 7 8 6 6 6 6 6 6 6 6 6 6 6 4 4 4 4 4 3 3 2 2 1 0 1 1 1 1 1 1 1 1 2 2 3 2
4 4 5 6 7 8 8 8 8 7 6 6 6 5 6 6 6 6 6 6 5 5 5 4 4 4 3 3 2 1 0 1 1 0 1 1 0 0 1 1 2 3 4
2 3 4 5 5 6 5 5 6 6 6 6 6 5 6 6 7 7 7 7 6 6 6 5 4 4 3 2 2 1 1 1 1 1 1 1 0 1 1 0 1 1 2
3 3 3 4 4 5 5 6 6 6 6 6 6 6 6 6 6 6 7 7 6 6 6 5 4 4 3 2 2 2 1 2 1 1 1 1 1 1 1 1 0 0 1
2 2 2 2 3 4 5 6 6 6 6 6 7 7 6 6 6 7 6 6 6 6 5 5 5 4 3 3 3 2 2 2 2 1 2 1 1 1 1 1 1 0 1
2 1 2 3 4 5 5 6 6 7 6 7 7 7 7 7 7 7 7 6 6 5 5 5 5 4 3 3 2 2 2 2 2 2 2 2 2 1 1 1 1 1 1
4 3 4 4 5 5 6 6 6 6 7 7 8 8 7 7 7 7 7 7 6 6 5 5 4 4 3 3 3 3 3 3 3 3 3 2 2 2 2 1 1 1 2
5 5 5 5 5 5 5 6 6 7 8 8 8 8 7 7 7 7 7 7 6 6 6 5 4 4 3 3 3 3 4 4 3 3 2 2 2 3 2 2 2 3 3
6 6 6 6 6 6 7 7 7 7 8 9 8 7 7 8 8 7 7 7 6 6 6 5 5 4 3 5 6 5 4 4 4 3 2 2 2 3 4 4 4 4 4
7 7 6 6 7 7 7 8 8 7 8 8 8 8 8 8 8 8 7 7 6 5 5 5 5 4 4 6 6 7 5 4 4 4 3 2 2 3 3 5 6 5 4
7 7 6 6 6 5 6 6 6 8 8 8 8 9 9 8 8 8 8 7 5 5 5 5 5 5 5 7 7 7 4 4 4 4 4 3 3 3 4 4 4 4 3
7 7 6 6 5 5 5 5 6 7 8 9 9 9 9 9 9 9 8 6 6 5 5 5 6 5 5 8 8 7 4 3 3 3 4 4 4 5 7 5 4 3 2
7 7 6 5 4 4 3 6 7 8 9 10 9 9 9 10 10 9 7 5 5 6 6 5 5 6 5 8 10 9 4 4 3 3 3 6 7 7 7 5 5 4 2
8 6 6 5 4 3 3 5 6 8 8 6 7 8 9 9 8 7 6 6 6 6 6 5 5 5 7 9 11 11 5 5 4 4 3 4 8 8 8 7 5 6 5
8 6 5 5 4 2 2 4 5 5 5 6 7 7 8 7 7 8 7 7 7 7 6 5 5 4 6 8 10 13 11 9 6 5 4 5 9 9 9 6 7 7 6
8 5 4 5 4 2 1 3 3 3 5 6 6 6 7 6 7 8 8 7 7 6 6 6 6 5 5 7 13 13 13 13 7 6 9 9 10 9 7 8 9 6 4
6 5 4 4 4 3 2 2 2 4 5 6 6 6 7 6 7 6 7 7 7 7 7 7 7 5 5 6 6 6 7 10 8 6 8 11 11 8 7 6 5 4 4
5 3 3 4 4 3 2 1 1 3 4 5 5 5 6 6 7 6 7 8 7 8 8 7 7 7 7 10 13 9 6 6 6 5 3 3 3 4 4 4 4 4 4
4 4 4 3 3 3 2 2 0 2 4 4 4 4 5 5 5 5 5 8 9 12 13 12 10 9 11 11 14 15 15 15 13 8 5 6 6 7 7 6 6 5 6
Wind_Direction
242 237 215 196 187 185 184 185 183 184 179 176 177 176 183 181 180 180 180 179 179 181 177 173 175 175 180 192 192 186 207 226 202 253 304 307 299 297 293 287 247 124 138
243 233 226 208 197 193 190 188 188 184 183 187 184 181 173 172 174 167 169 173 170 171 172 168 171 171 179 190 191 186 195 221 185 179 239 306 328 355 6 16 62 70 82
229 224 217 215 202 199 195 193 190 186 186 179 162 143 128 122 154 177 177 171 165 162 158 162 160 158 166 183 192 188 195 219 225 196 194 219 246 297 353 25 43 52 61
226 219 213 211 208 208 201 193 188 185 183 175 175 174 180 186 189 181 178 167 161 159 158 157 157 160 168 184 198 185 200 202 227 235 225 222 202 216 264 357 39 49 50
220 217 214 212 210 203 196 194 185 182 181 179 182 182 185 185 165 154 161 165 158 152 152 153 151 158 171 185 186 187 203 205 213 217 222 234 233 222 222 234 199 68 45
223 218 215 205 203 195 185 180 175 178 177 178 181 184 183 174 165 167 169 167 155 146 140 138 137 141 151 166 184 199 214 219 223 226 219 215 221 219 215 228 206 181 118
214 211 203 197 194 189 185 178 175 178 179 179 183 187 182 176 176 174 172 167 163 160 157 137 136 133 135 138 143 171 209 228 227 235 237 236 236 227 216 221 217 186 158
214 209 203 198 195 190 185 178 177 178 175 175 178 176 170 168 168 166 161 163 158 150 144 134 129 127 122 114 111 129 157 135 197 237 222 222 259 262 235 217 201 206 184
221 210 200 198 196 192 188 182 176 174 174 170 161 156 155 154 152 147 140 142 141 139 137 132 126 117 107 103 105 116 107 122 122 155 126 146 31 3 324 273 223 212 215
218 196 193 193 194 191 182 170 172 176 171 163 162 157 153 148 146 143 143 143 140 134 134 129 123 116 109 108 115 118 113 118 109 116 111 99 71 44 24 3 274 237 216
222 228 216 198 184 173 171 173 172 166 165 160 151 144 143 137 135 135 140 140 133 134 137 138 131 126 118 116 126 135 140 136 116 97 115 109 84 73 32 37 115 232 182
259 232 218 186 176 181 181 181 178 173 169 159 150 146 140 137 137 139 140 136 134 133 136 135 131 127 124 123 135 146 143 144 146 130 120 114 99 86 54 69 92 123 126
298 287 244 212 205 197 190 188 184 177 164 155 150 147 149 150 152 150 143 138 135 132 130 130 134 134 134 131 131 135 134 134 137 138 137 129 123 107 65 73 85 80 85
271 259 250 241 228 212 199 192 190 176 165 159 159 161 165 163 159 152 146 144 142 140 137 134 137 137 135 134 133 128 123 115 105 103 113 118 137 150 140 111 104 111 105
276 258 249 244 233 223 214 202 194 182 169 165 171 174 165 157 152 151 148 144 142 145 143 138 137 135 138 151 150 143 139 132 117 98 97 112 136 148 149 145 147 136 126
285 274 261 250 238 225 217 207 199 189 174 174 178 167 159 158 158 156 151 148 148 148 147 151 152 156 167 177 175 159 147 148 148 141 119 101 86 107 104 109 121 142 145
298 288 274 257 246 235 218 209 201 185 177 178 174 168 165 166 165 159 156 160 159 155 157 162 161 166 181 187 184 176 157 160 167 164 158 144 120 92 76 82 73 70 105
309 302 289 274 260 240 222 206 186 178 179 178 175 171 168 168 163 162 167 166 160 164 168 171 170 170 193 197 191 181 155 160 172 175 174 166 155 153 136 111 83 59 50
303 293 288 278 271 250 217 187 181 179 182 186 184 179 173 169 169 175 177 170 165 170 172 172 172 178 198 203 197 177 149 165 184 189 185 180 185 186 166 142 127 95 50
309 305 303 297 287 267 207 181 186 186 196 196 189 179 175 175 180 181 175 167 167 174 171 178 184 186 200 208 205 187 164 175 186 193 202 201 198 199 183 162 158 160 166
308 311 311 303 290 276 201 192 194 205 204 183 173 174 177 178 175 169 166 164 166 168 177 187 194 197 206 214 212 202 180 186 189 196 204 220 213 210 202 186 181 195 178
313 315 317 312 312 293 198 200 213 207 170 163 169 175 175 173 168 165 166 167 168 176 186 194 204 211 213 218 220 217 211 202 193 202 204 216 220 217 213 202 201 203 180
311 312 310 315 321 318 229 213 225 174 159 161 171 172 169 169 166 169 171 171 178 188 197 202 212 217 213 220 224 225 222 215 202 205 210 215 220 218 219 218 216 206 173
308 310 310 313 318 323 321 241 204 168 160 168 172 170 171 172 171 175 177 184 192 199 203 209 215 216 212 216 221 222 227 223 215 208 217 218 221 214 212 222 225 194 186
309 307 302 301 307 322 332 324 186 163 166 172 174 175 178 178 183 189 195 198 204 203 204 210 208 208 220 222 215 208 210 202 200 179 179 186 195 202 200 207 212 206 207
312 317 314 307 310 324 340 353 108 166 170 180 184 184 183 184 188 193 209 218 216 223 225 222 216 222 229 231 225 223 223 220 213 200 200 207 211 215 217 219 219 216 215
Height
1507 1508 1510 1512 1514 1516 1518 1521 1523 1526 1529 1531 1533 1535 1537 1539 1541 1543 1545 1546 1548 1549 1550 1551 1552 1553 1553 1554 1554 1554 1554 1554 1554 1553 1552 1551 1550 1549 1548 1547 1547 1546 1546
1503 1505 1506 1508 1510 1512 1514 1517 1519 1522 1525 1527 1530 1532 1534 1536 1538 1540 1541 1543 1544 1545 1546 1548 1548 1549 1550 1550 1550 1550 1550 1550 1550 1550 1548 1547 1546 1544 1544 1544 1544 1544 1543
1499 1501 1503 1504 1506 1509 1511 1513 1515 1518 1520 1523 1526 1529 1531 1532 1534 1536 1537 1539 1540 1542 1543 1544 1545 1545 1546 1546 1546 1546 1546 1546 1546 1546 1546 1545 1542 1542 1541 1541 1541 1540 1540
1495 1496 1498 1500 1502 1504 1507 1509 1511 1514 1516 1519 1521 1523 1525 1526 1528 1531 1533 1535 1536 1538 1539 1540 1541 1541 1542 1542 1542 1542 1541 1541 1541 1541 1541 1541 1540 1540 1538 1538 1538 1537 1537
1490 1492 1494 1496 1498 1500 1503 1505 1507 1509 1512 1514 1517 1519 1521 1523 1525 1527 1529 1531 1532 1533 1534 1535 1536 1537 1537 1537 1537 1537 1537 1536 1536 1536 1536 1536 1536 1536 1535 1534 1534 1534 1533
1485 1487 1490 1492 1494 1496 1498 1500 1503 1505 1508 1510 1512 1515 1516 1518 1521 1522 1524 1526 1528 1529 1530 1531 1532 1532 1532 1532 1533 1532 1532 1531 1531 1531 1530 1530 1530 1530 1530 1530 1529 1529 1529
1481 1483 1485 1487 1490 1492 1494 1496 1499 1501 1503 1506 1508 1510 1512 1514 1516 1518 1520 1522 1523 1524 1526 1527 1527 1527 1527 1527 1527 1527 1527 1526 1526 1525 1525 1525 1525 1525 1525 1525 1525 1525 1524
1477 1479 1481 1483 1486 1488 1490 1493 1495 1497 1500 1501 1504 1506 1508 1510 1512 1514 1516 1517 1519 1520 1522 1522 1523 1523 1523 1523 1522 1522 1522 1521 1521 1520 1520 1519 1520 1520 1520 1520 1521 1520 1520
1475 1476 1478 1480 1482 1485 1487 1489 1491 1494 1496 1498 1500 1502 1504 1506 1508 1509 1511 1513 1515 1516 1517 1518 1518 1518 1518 1518 1518 1517 1517 1516 1515 1515 1514 1514 1514 1514 1514 1515 1515 1517 1515
1474 1475 1476 1478 1479 1482 1484 1486 1488 1490 1492 1494 1495 1497 1499 1501 1504 1505 1507 1509 1510 1511 1513 1513 1514 1513 1513 1513 1513 1512 1511 1511 1510 1510 1509 1509 1509 1509 1509 1509 1510 1511 1511
1474 1474 1475 1476 1477 1479 1481 1482 1484 1486 1487 1489 1491 1493 1495 1497 1499 1501 1503 1505 1506 1507 1508 1509 1509 1509 1508 1508 1508 1507 1506 1506 1505 1505 1504 1504 1504 1504 1504 1504 1505 1506 1506
1473 1473 1473 1474 1475 1476 1477 1479 1480 1482 1483 1485 1487 1488 1490 1492 1495 1497 1499 1500 1502 1503 1504 1504 1504 1504 1504 1504 1503 1502 1502 1501 1500 1500 1500 1500 1500 1500 1500 1500 1500 1501 1502
1472 1472 1472 1472 1473 1474 1474 1475 1477 1478 1479 1481 1483 1484 1486 1489 1491 1493 1495 1496 1498 1498 1499 1500 1500 1500 1499 1499 1498 1498 1497 1497 1496 1496 1496 1496 1496 1496 1496 1496 1497 1497 1497
1471 1470 1470 1470 1471 1471 1471 1472 1473 1474 1476 1477 1479 1481 1483 1485 1487 1489 1491 1492 1493 1494 1495 1495 1495 1495 1495 1495 1494 1494 1493 1493 1493 1493 1493 1493 1492 1492 1493 1493 1493 1494 1494
1469 1468 1468 1468 1468 1468 1468 1469 1470 1471 1472 1473 1475 1477 1480 1482 1484 1485 1487 1488 1489 1490 1491 1491 1491 1491 1491 1490 1490 1490 1489 1489 1489 1489 1489 1489 1489 1489 1490 1490 1490 1491 1491
1467 1466 1465 1465 1464 1464 1465 1465 1466 1467 1468 1469 1471 1474 1476 1478 1480 1482 1483 1484 1485 1486 1486 1487 1487 1487 1487 1487 1486 1486 1486 1486 1486 1486 1486 1486 1486 1487 1487 1487 1488 1488 1489
1465 1463 1462 1461 1460 1460 1460 1461 1462 1463 1464 1466 1468 1470 1472 1474 1476 1478 1479 1481 1481 1482 1483 1483 1483 1483 1483 1483 1483 1482 1483 1482 1483 1483 1483 1483 1484 1484 1484 1485 1485 1486 1486
1462 1460 1458 1457 1456 1456 1456 1457 1458 1459 1460 1462 1464 1466 1468 1471 1472 1474 1476 1477 1478 1479 1479 1479 1479 1480 1479 1479 1479 1479 1480 1480 1480 1480 1480 1481 1481 1482 1482 1483 1483 1483 1484
1460 1457 1455 1454 1452 1452 1452 1453 1453 1454 1456 1458 1460 1462 1465 1467 1469 1470 1472 1473 1474 1475 1475 1475 1476 1476 1476 1476 1476 1476 1476 1477 1477 1477 1478 1478 1479 1479 1480 1481 1481 1481 1482
1457 1454 1452 1450 1449 1448 1448 1449 1449 1450 1452 1454 1456 1459 1461 1463 1465 1466 1468 1469 1470 1471 1471 1472 1472 1472 1472 1473 1473 1473 1473 1474 1474 1474 1475 1476 1477 1477 1477 1478 1479 1479 1480
1454 1452 1449 1447 1446 1445 1445 1445 1446 1447 1449 1451 1453 1455 1457 1459 1461 1462 1464 1465 1466 1467 1467 1468 1468 1468 1469 1469 1470 1470 1470 1471 1471 1472 1473 1473 1474 1474 1475 1476 1477 1477 1478
1451 1449 1446 1444 1443 1442 1442 1442 1443 1444 1446 1447 1449 1451 1453 1454 1456 1458 1459 1461 1462 1462 1463 1463 1464 1464 1465 1466 1466 1467 1467 1468 1469 1469 1470 1471 1471 1472 1472 1473 1474 1475 1475
1448 1446 1444 1442 1441 1440 1440 1440 1440 1441 1442 1444 1445 1447 1449 1450 1452 1454 1455 1456 1457 1458 1459 1459 1460 1460 1461 1462 1463 1463 1464 1465 1465 1466 1467 1468 1468 1469 1469 1470 1471 1471 1472
1446 1444 1442 1440 1439 1438 1437 1437 1438 1438 1439 1440 1441 1443 1444 1446 1448 1449 1450 1451 1452 1453 1454 1455 1455 1456 1457 1458 1459 1459 1460 1461 1462 1463 1463 1464 1465 1465 1466 1467 1467 1468 1469
1443 1441 1439 1438 1437 1436 1435 1435 1435 1435 1436 1437 1438 1439 1440 1442 1443 1445 1446 1447 1448 1449 1450 1451 1451 1452 1453 1454 1455 1455 1456 1457 1458 1459 1459 1460 1461 1461 1462 1463 1464 1464 1465
1440 1438 1437 1435 1434 1434 1433 1432 1432 1433 1433 1434 1434 1436 1437 1438 1439 1440 1442 1442 1444 1445 1445 1446 1447 1447 1449 1449 1450 1451 1452 1453 1454 1454 1454 1455 1456 1457 1458 1458 1459 1460 1461